{"data":{"norad_id":52882,"epoch":"2026-09-19T11:59:59.221536Z","epoch_age_seconds":155201,"freshness":"FRESH","line1":"1 52882U 22062BE  26262.49999099  .00004058  00000+0  16414-3 0  9998","line2":"2 52882  53.1533 216.8062 0002129  64.7353 295.3867 15.26963119235423","mean_motion":15.26963119,"eccentricity":0.0002129,"inclination_deg":53.1533,"raan_deg":216.8062,"arg_perigee_deg":64.7353,"mean_anomaly_deg":295.3867,"bstar":0.00016414,"rev_number":23542,"period_min":94.304831733136,"perigee_km":483.43574160037,"apogee_km":486.35802142712,"semimajor_km":6863.0338815137,"source":"CELESTRAK","updated_at":"2026-09-20T09:00:40.138328Z"}}